Location: ???????
(56.2167°N, 38.0500°E)
Time: 11:46:52
(UTC+00:00)

COSMOS 2406 - Pass Details

Date: 19 May 2025
Orbit: 845 x 859 km, 71.0° (Epoch: 13 June)

Event Time Altitude Azimuth Distance (km) Brightness Sun altitude
Exits shadow 21:59:09 - 240° (WSW) 3,042 5.7 -13.5°
Reaches altitude 10° 22:00:42 10° 244° (WSW) 2,477 5.3 -13.4°
Maximum altitude 22:06:10 46° 317° (NW) 1,142 4.2 -13.3°
Drops below altitude 10° 22:11:40 10° 31° (NNE) 2,497 6.9 -13.2°
Sets 22:14:15 0° 37° (NE) 3,438 7.6 -13.1°
